Regional Weather Roundup
Issued by NWS

Home | Current Version | Previous Version | Text Only | Print | Product List | Glossary On
Versions: 1 2 3 4 5 6 7 8 9 10 11 12 13 14 15 16 17 18 19 20 21 22 23 24 25 26 27 28 29 30 31 32 33 34 35 36 37 38 39 40 41 42 43 44 45 46 47 48 49 50
000
ASUS45 KTFX 281319
RWRMT
MONTANA REGIONAL WEATHER ROUNDUP
NATIONAL WEATHER SERVICE GREAT FALLS MT
700 AM MDT FRI AUG 28 2015

NOTE: "FAIR" INDICATES FEW OR NO CLOUDS BELOW 12000 FEET WITH NO
SIGNIFICANT WEATHER AND/OR OBSTRUCTIONS TO VISIBILITY.

MTZ001>007-043-281400-
WEST OF THE DIVIDE

CITY           SKY/WX    TMP DP  RH WIND       PRES   REMARKS
KALISPELL      CLOUDY    48  42  80 CALM      30.03R HAZE
MISSOULA       CLOUDY    51  39  63 CALM      30.11R HAZE
BUTTE          CLOUDY    44  40  85 E3        30.24S FOG
MULLAN PASS    PTCLDY    59  34  39 S8        30.17F HAZE
DEER LODGE       N/A     48  39  71 CALM      30.22R
EUREKA           N/A     57  39  51 S7          N/A
HAMILTON         N/A     61  39  44 S8        30.10S
LIBBY            N/A     46  39  76 CALM      30.01R
PLAINS           N/A     50  42  73 CALM      30.04S
RONAN            N/A     50  42  73 CALM      30.08S
THOMPSON FALLS   N/A     49  40  71 CALM      30.06F
$$

MTZ008-052>055-281400-
SOUTHWEST MONTANA

CITY           SKY/WX    TMP DP  RH WIND       PRES   REMARKS
BOZEMAN        MOCLDY    49  45  86 SE6       30.19R
DILLON         CLOUDY    52  40  63 SW8       30.22S
W YELLOWSTONE  CLEAR     32  32 100 CALM      30.36R
THREE FORKS      N/A     49  29  46 CALM      30.15S
TWIN BRIDGES     N/A     51  40  66 S6        30.18S
$$

MTZ009-010-012-014-046-048-049-054-281400-
EAST SLOPES AND CENTRAL MONTANA

CITY           SKY/WX    TMP DP  RH WIND       PRES   REMARKS
CUT BANK       CLOUDY    66  38  35 W15       30.02S HAZE
GREAT FALLS    CLOUDY    63  39  41 S10       30.04R HAZE
MALMSTROM AFB  CLEAR     65  39  38 SW13      30.04R SMOKE
HELENA         CLOUDY    56  41  57 CALM      30.13R SMOKE
CONRAD           N/A     59  45  59 S7        30.05S
$$

MTZ011-013-016-021-045-047-050-051-281400-
NORTH CENTRAL MONTANA

CITY           SKY/WX    TMP DP  RH WIND       PRES   REMARKS
HAVRE          CLOUDY    58  41  53 SW13      29.96R HAZE
LEWISTOWN      CLOUDY    56  42  59 SE3       30.09R HAZE
N BAR RANCH      N/A     66  36  32 W7        30.11R HAZE
CHINOOK          N/A     57  45  62 NW3       29.94R
FORT BENTON      N/A     57  39  51 SW6       30.00S
$$

MTZ017>020-022>027-061-062-281400-
NORTHEAST MONTANA

CITY           SKY/WX    TMP DP  RH WIND       PRES   REMARKS
GLASGOW        MOCLDY    56  51  84 NW5       29.92R
JORDAN           N/A     56  43  61 W6        29.96R
SIDNEY         CLEAR     57  54  88 S3        29.90R
WOLF POINT     PTCLDY    56  52  86 SW6       29.91R
MALTA            N/A     54  47  77 CALM      29.90R
PLENTYWOOD       N/A     57  52  82 N3        29.90R
POPLAR           N/A     55  54  94 W3        29.91R
SCOBEY           N/A     49  42  76 CALM      29.91R
$$

MTZ028>42-056>058-281400-
SOUTHCENTRAL AND SOUTHEAST MONTANA

CITY           SKY/WX    TMP DP  RH WIND       PRES   REMARKS
BAKER          CLEAR     60  50  69 VRB3      29.99R
BILLINGS       MOCLDY    66  47  50 SW20      30.09R
LIVINGSTON     CLOUDY    52  41  66 NW14      30.17R
MILES CITY     MOCLDY    62  46  55 SW8       29.97R HAZE
EKALAKA          N/A     68  43  40 SW2       30.01R
FORSYTH          N/A     68  46  45 W9        29.99R
LAUREL           N/A     63  44  49 SW5       30.08S
ROUNDUP          N/A     61  40  45 CALM      29.97R
$$

REGIONAL REPORTS...DAKOTAS

CITY           SKY/WX    TMP DP  RH WIND       PRES   REMARKS
WILLISTON      CLEAR     58  56  93 CALM      29.89R
MINOT          MOCLDY    67  58  72 SW13      29.83R
DICKINSON      CLEAR     59  55  87 SW6       29.92R
BEACH            N/A     63  50  63 W10       29.96R
CROSBY           N/A     57  57 100 S3        29.88R
BISMARCK       CLEAR     60  59  96 CALM      29.91S
GRAND FORKS    MOSUNNY   64  62  93 S10       29.84F
FARGO          MOSUNNY   65  62  90 S10       29.92R
BUFFALO SD       N/A     57  54  89 SW3       29.93S
RAPID CITY     PTCLDY    58  53  84 NW8       30.02R
$$

REGIONAL REPORTS...WYOMING/IDAHO/WASHINGTON

CITY           SKY/WX    TMP DP  RH WIND       PRES   REMARKS
GILLETTE       CLEAR     61  44  53 SW7       30.12R
SHERIDAN       CLEAR     54  44  69 CALM      30.10R
BUFFALO WY     CLEAR     61  38  42 W6        30.17R HAZE
CODY           PTCLDY    48  45  87 CALM      30.21R
YELLOWSTONE LA   N/A     35  33  92 NW3       30.43S
IDAHO FALLS    CLEAR     49  43  80 NW5       30.22R
SALMON         CLOUDY    48  39  71 CALM      30.19R
BOISE          MOCLDY    72  36  26 SE10      30.00S
SPOKANE        CLOUDY    66  40  38 S3        29.95S
$$

REGIONAL REPORTS...ALBERTA

CITY           SKY/WX    TMP DP  RH WIND       PRES   REMARKS
EDMONTON       CLEAR     55  52  88 SW5       29.80S
CALGARY        MOCLDY    59  41  51 SW3       29.92R SMOKE
LETHBRIDGE     CLOUDY    64  41  42 SW15      29.94R SMOKE
MEDICINE HAT   CLOUDY    61  45  55 SW8       29.90R SMOKE
WATERTON GATE    N/A     61  39  44 SW8         N/A
CARDSTON         N/A     59  39  47 SW6         N/A
MILK RIVER       N/A     54  41  62 NW6         N/A
ONEFOUR          N/A     61  39  44 NW3         N/A
$$

REGIONAL REPORTS...SASKATCHEWAN

CITY           SKY/WX    TMP DP  RH WIND       PRES   REMARKS
SWIFT CURRENT  CLEAR     59  46  63 SW12      29.86R HAZE
REGINA         MOCLDY    54  52  94 W6        29.87R FOG
SASKATOON      MOCLDY    57  55  94 S3        29.83R
CYPRESS HILLS    N/A     66  36  32 W9          N/A
VAL MARIE        N/A     46  43  87 E2          N/A
ROCKGLEN         N/A     63  46  55 W10         N/A
ASSINIBOIA       N/A     52  50  93 S5          N/A
$$



USA.gov is the U.S. government's official web portal to all federal, state and local government web resources and services.